Powrót do katalogu

STARLINK-11557

AktywnyŁącznośćVLEO
NORAD 62837·PAYLOAD·🇺🇸 United States

Wystrzelony Jan 27, 2025 z Cape Canaveral Space Force Station

Loading…

Następne Przeloty (najbliższe 24 godziny)

TLE

ŚwieżeSource: CelesTrak SupGP

Epoka: Sep 14, 2026, 20:53 UTC

1 62837C 25019J   26257.87062500  .00026630  00000+0  20700-3 0  2578
2 62837  43.0004 245.5129 0001580 266.4080 165.3428 15.70806818    11

Śledź STARLINK-11557 w czasie rzeczywistym z AllMySat

Download on the App Store